TimeEST,TemperatureF,Dew PointF,Humidity,Sea Level PressureIn,VisibilityMPH,Wind Direction,Wind SpeedMPH,Gust SpeedMPH,PrecipitationIn,Events,Conditions,WindDirDegrees,DateUTC
12:55 AM,61.2,54.5,79,30.13,10.0,NW,10.4,-,N/A,,Partly Cloudy,310,2013-01-18 05:55:00
1:55 AM,59.7,52.9,78,30.14,10.0,NW,8.1,-,N/A,,Clear,320,2013-01-18 06:55:00
2:55 AM,59.2,50.0,72,30.14,10.0,NW,12.7,-,N/A,,Clear,320,2013-01-18 07:55:00
3:55 AM,57.9,49.8,74,30.14,10.0,NW,6.9,-,N/A,,Clear,320,2013-01-18 08:55:00
4:55 AM,57.4,48.6,72,30.15,10.0,NNW,9.2,-,N/A,,Clear,330,2013-01-18 09:55:00
5:55 AM,57.2,48.4,72,30.17,10.0,North,9.2,-,N/A,,Clear,350,2013-01-18 10:55:00
6:55 AM,56.1,47.7,73,30.19,10.0,North,10.4,-,N/A,,Scattered Clouds,350,2013-01-18 11:55:00
7:55 AM,56.3,46.6,70,30.21,10.0,North,12.7,-,N/A,,Overcast,360,2013-01-18 12:55:00
8:55 AM,57.2,46.6,68,30.24,10.0,North,15.0,-,N/A,,Overcast,360,2013-01-18 13:55:00
9:55 AM,57.9,46.8,66,30.26,10.0,North,12.7,-,N/A,,Overcast,360,2013-01-18 14:55:00
10:55 AM,58.5,46.6,65,30.26,10.0,North,11.5,-,N/A,,Overcast,360,2013-01-18 15:55:00
11:55 AM,62.1,47.5,59,30.23,10.0,NNE,9.2,-,N/A,,Partly Cloudy,20,2013-01-18 16:55:00
12:55 PM,61.9,47.3,59,30.20,10.0,Calm,Calm,-,N/A,,Clear,0,2013-01-18 17:55:00
1:55 PM,63.9,49.3,59,30.18,10.0,NNE,6.9,-,N/A,,Mostly Cloudy,30,2013-01-18 18:55:00
2:55 PM,64.4,51.1,62,30.17,10.0,NNE,6.9,-,N/A,,Mostly Cloudy,30,2013-01-18 19:55:00
3:55 PM,63.0,52.0,67,30.19,10.0,NE,6.9,-,N/A,,Overcast,40,2013-01-18 20:55:00
4:47 PM,62.6,55.4,77,30.19,10.0,NE,8.1,-,N/A,,Mostly Cloudy,50,2013-01-18 21:47:00
4:55 PM,62.8,55.2,76,30.19,10.0,NE,10.4,-,N/A,,Mostly Cloudy,50,2013-01-18 21:55:00
5:21 PM,62.6,55.4,77,30.19,10.0,NE,8.1,-,N/A,,Mostly Cloudy,50,2013-01-18 22:21:00
5:55 PM,62.8,56.3,79,30.20,10.0,ENE,5.8,-,N/A,,Mostly Cloudy,60,2013-01-18 22:55:00
6:16 PM,62.6,57.2,82,30.20,10.0,ENE,5.8,-,N/A,,Mostly Cloudy,60,2013-01-18 23:16:00
6:39 PM,62.6,57.2,82,30.20,10.0,ENE,3.5,-,N/A,,Mostly Cloudy,70,2013-01-18 23:39:00
6:55 PM,62.6,57.0,82,30.20,10.0,East,3.5,-,N/A,,Mostly Cloudy,80,2013-01-18 23:55:00
7:55 PM,63.1,57.9,83,30.21,10.0,Calm,Calm,-,N/A,,Mostly Cloudy,0,2013-01-19 00:55:00
8:55 PM,63.0,58.6,86,30.22,10.0,Calm,Calm,-,N/A,,Mostly Cloudy,0,2013-01-19 01:55:00
9:55 PM,63.5,59.5,87,30.21,10.0,SW,4.6,-,N/A,,Mostly Cloudy,230,2013-01-19 02:55:00
10:14 PM,64.4,59.0,83,30.22,10.0,Calm,Calm,-,N/A,Rain,Light Rain,0,2013-01-19 03:14:00
10:17 PM,62.6,59.0,88,30.22,9.0,NW,3.5,-,N/A,Rain,Light Rain,310,2013-01-19 03:17:00
10:21 PM,62.6,59.0,88,30.22,8.0,NW,3.5,-,N/A,Rain,Light Rain,320,2013-01-19 03:21:00
10:23 PM,62.6,59.0,88,30.22,7.0,NW,3.5,-,N/A,Rain,Light Rain,320,2013-01-19 03:23:00
10:26 PM,62.6,59.0,88,30.22,8.0,NW,4.6,-,N/A,Rain,Light Rain,320,2013-01-19 03:26:00
10:35 PM,62.6,59.0,88,30.21,9.0,Calm,Calm,-,N/A,Rain,Light Rain,0,2013-01-19 03:35:00
10:45 PM,62.6,59.0,88,30.21,9.0,Calm,Calm,-,N/A,,Light Drizzle,0,2013-01-19 03:45:00
10:47 PM,62.6,59.0,88,30.21,10.0,Calm,Calm,-,N/A,,Light Drizzle,0,2013-01-19 03:47:00
10:49 PM,62.6,59.0,88,30.20,10.0,Calm,Calm,-,N/A,,Light Drizzle,0,2013-01-19 03:49:00
10:55 PM,62.6,59.5,90,30.20,10.0,Calm,Calm,-,0.00,,Mostly Cloudy,0,2013-01-19 03:55:00
11:38 PM,62.6,59.0,88,30.20,10.0,WNW,3.5,-,N/A,,Light Drizzle,300,2013-01-19 04:38:00
11:47 PM,62.6,59.0,88,30.20,8.0,West,5.8,-,N/A,,Light Drizzle,260,2013-01-19 04:47:00
11:49 PM,62.6,59.0,88,30.20,8.0,West,4.6,-,N/A,,Light Drizzle,260,2013-01-19 04:49:00
11:55 PM,62.4,59.5,90,30.20,8.0,West,5.8,-,0.00,,Light Drizzle,260,2013-01-19 04:55:00
11:59 PM,62.6,59.0,88,30.20,8.0,West,6.9,-,N/A,,Light Drizzle,280,2013-01-19 04:59:00